FW3123 Weather Reports


time (UTC)temp
F
wind
direction
speed
knots
gust
knots
rain 1hr
in
rain 24hr
in
rain mn
in
humidity
%
barometer
mb
20260506033007 50 12 1.7 3.5 0.00 0.00 0.00 47 1013.9
20260506031516 50 35 3.5 7.0 0.00 0.00 0.00 44 1013.9
20260506030010 50 24 2.6 7.0 0.00 0.00 0.00 44 1013.9
20260506024508 51 9 5.2 8.7 0.00 0.00 0.00 44 1013.6
20260506023002 51 355 3.5 8.7 0.00 0.00 0.00 45 1013.5
20260506021608 51 360 2.6 7.8 0.00 0.00 0.00 44 1013.5
20260506020057 51 317 0.9 3.5 0.00 0.00 0.00 46 1013.0
20260506014600 51 335 0.9 3.5 0.00 0.00 0.00 45 1012.5
20260506013055 52 288 0.9 2.6 0.00 0.00 0.00 45 1012.3
20260506011552 52 309 0.9 4.3 0.00 0.00 0.00 44 1012.0
20260506010058 53 298 0.9 3.5 0.00 0.00 0.00 43 1011.7
20260506004553 54 284 0.9 1.7 0.00 0.00 0.00 40 1011.7
20260506003051 54 305 0.9 2.6 0.00 0.00 0.00 40 1011.7
20260506001553 55 309 0.9 4.3 0.00 0.00 0.00 38 1011.5
20260506000051 55 304 1.7 6.1 0.00 0.00 0.00 36 1011.5
20260505234549 56 310 4.3 7.8 0.00 0.00 0.00 35 1011.7
20260505233055 56 335 2.6 10.4 0.00 0.00 0.00 36 1011.6
20260505231549 56 333 3.5 11.3 0.00 0.00 0.00 34 1011.6
20260505230050 57 335 4.3 8.7 0.00 0.00 0.00 33 1011.7
20260505224549 57 309 2.6 13.9 0.00 0.00 0.00 33 1011.7
20260505223050 57 270 8.7 13.9 0.00 0.00 0.00 32 1011.7
20260505221547 57 293 2.6 12.2 0.00 0.00 0.00 33 1011.8
20260505220046 57 322 7.0 12.2 0.00 0.00 0.00 33 1011.9
20260505214546 57 290 6.1 11.3 0.00 0.00 0.00 33 1011.7
20260505213047 58 268 5.2 13.9 0.00 0.00 0.00 32 1011.7
20260505211545 57 269 5.2 15.6 0.00 0.00 0.00 32 1011.6
20260505210044 57 341 6.1 11.3 0.00 0.00 0.00 31 1011.8
20260505204544 57 309 7.0 14.8 0.00 0.00 0.00 31 1011.7
20260505203143 57 239 8.7 15.6 0.00 0.00 0.00 29 1011.8
20260505201545 57 302 6.1 13.9 0.00 0.00 0.00 30 1011.9
20260505200041 58 281 7.0 17.4 0.00 0.00 0.00 29 1011.9
20260505194548 58 304 9.6 18.2 0.00 0.00 0.00 28 1012.0
20260505193100 58 269 10.4 18.2 0.00 0.00 0.00 28 1012.3
20260505191542 57 271 8.7 16.5 0.00 0.00 0.00 29 1012.1
20260505190041 57 248 9.6 16.5 0.00 0.00 0.00 31 1012.1
20260505184538 57 290 9.6 17.4 0.00 0.00 0.00 30 1012.2
20260505183037 58 296 9.6 17.4 0.00 0.00 0.00 32 1012.1
20260505181535 57 328 7.0 20.0 0.00 0.00 0.00 30 1011.8
20260505180039 56 265 9.6 15.6 0.00 0.00 0.00 32 1011.6
20260505174534 56 276 10.4 15.6 0.00 0.00 0.00 32 1011.5
20260505173032 56 279 7.8 13.9 0.00 0.00 0.00 33 1011.5
20260505171536 56 284 9.6 16.5 0.00 0.00 0.00 32 1011.7
20260505170034 56 283 7.8 16.5 0.00 0.00 0.00 34 1011.4
20260505164537 57 277 5.2 14.8 0.00 0.00 0.00 36 1011.2
20260505163036 56 274 7.0 13.9 0.00 0.00 0.00 33 1011.4
20260505161531 56 303 8.7 15.6 0.00 0.00 0.00 35 1011.5
20260505153034 52 281 4.3 7.8 0.00 0.00 0.00 43 1011.5
20260505151528 51 262 6.1 10.4 0.00 0.00 0.00 42 1011.9
20260505124510 48 304 4.3 9.6 0.00 0.00 0.00 46 1011.3
20260505123008 48 322 1.7 9.6 0.00 0.00 0.00 47 1011.3
20260505121506 48 306 3.5 7.8 0.00 0.00 0.00 48 1011.2
20260505120003 47 302 4.3 7.8 0.00 0.00 0.00 49 1011.3
20260505114600 0 0.0 0.0 0.00 0.00 0.00 1010.3
20260505113059 0 0.0 0.0 0.00 0.00 0.00 1009.9
20260505111551 0 0.0 0.0 0.00 0.00 0.00 1009.3
20260505101536 0 0.0 0.0 0.00 0.00 0.00 1009.0
20260505100031 0 0.0 0.0 0.00 0.00 0.00 1008.9
20260505094525 0 0.0 0.0 0.00 0.00 0.00 1009.0
20260505093020 0 0.0 0.0 0.00 0.00 0.00 1008.7
20260505091519 50 5 4.3 13.0 0.00 0.00 0.00 1008.6
20260505090012 50 316 6.1 13.9 0.00 0.00 0.00 49 1008.5
20260505084513 51 337 10.4 18.2 0.00 0.00 0.00 48 1008.0
20260505083015 51 349 7.8 12.2 0.00 0.00 0.00 51 1007.7
20260505081502 52 302 5.2 10.4 0.00 0.00 0.00 52 1007.2
20260505080105 52 330 3.5 8.7 0.00 0.00 0.00 52 1007.1
20260505074556 53 355 3.5 5.2 0.00 0.00 0.00 51 1006.5
20260505073059 54 320 3.5 10.4 0.00 0.00 0.00 49 1006.5
20260505071600 55 309 4.3 9.6 0.00 0.00 0.00 48 1006.1
20260505070051 55 275 2.6 12.2 0.00 0.00 0.00 47 1006.0
20260505064541 56 318 4.3 13.9 0.00 0.00 0.00 45 1005.7
20260505063041 57 313 7.0 14.8 0.00 0.00 0.00 42 1005.6
20260505061534 58 298 4.3 10.4 0.00 0.00 0.00 41 1005.1
20260505060052 59 322 4.3 13.0 0.00 0.00 0.00 41 1005.2
20260505054528 59 304 2.6 7.0 0.00 0.00 0.00 42 1005.2
20260505053024 60 295 3.5 9.6 0.00 0.00 0.00 38 1005.0
20260505051521 60 292 7.0 11.3 0.00 0.00 0.00 36 1004.3
20260505041514 63 277 4.3 8.7 0.00 0.00 0.00 37 1003.9
20260505040020 63 306 4.3 13.0 0.00 0.00 0.00 37 1003.5
20260505034513 64 318 6.1 13.0 0.00 0.00 0.00 38 1003.1